| time (UTC) | temp F | wind direction | speed knots | gust knots | rain 1hr in | rain 24hr in | rain mn in | humidity % | barometer mb |
| 20260503021523 | 47 | 128 | 2.6 | 3.5 | 0.00 | 0.08 | 0.00 | 79 | 1019.5 |
| 20260503020515 | 47 | 124 | 2.6 | 2.6 | 0.00 | 0.08 | 0.00 | 80 | 1019.6 |
| 20260503015518 | 47 | 83 | 1.7 | 1.7 | 0.00 | 0.08 | 0.00 | 80 | 1019.5 |
| 20260503014541 | 47 | 135 | 2.6 | 2.6 | 0.00 | 0.08 | 0.00 | 79 | 1019.6 |
| 20260503013523 | 47 | 134 | 2.6 | 3.5 | 0.00 | 0.08 | 0.00 | 79 | 1019.6 |
| 20260503012516 | 47 | 114 | 4.3 | 4.3 | 0.00 | 0.08 | 0.00 | 80 | 1019.6 |
| 20260503011518 | 46 | 98 | 2.6 | 2.6 | 0.00 | 0.08 | 0.00 | 82 | 1019.7 |
| 20260503010521 | 46 | 114 | 1.7 | 1.7 | 0.00 | 0.08 | 0.00 | 85 | 1019.9 |
| 20260503005544 | 46 | 179 | 0.9 | 0.9 | 0.00 | 0.08 | 0.00 | 84 | 1020.0 |
| 20260503004517 | 46 | 194 | 0.9 | 0.9 | 0.00 | 0.08 | 0.00 | 85 | 1020.1 |
| 20260503003539 | 46 | 266 | 1.7 | 1.7 | 0.00 | 0.08 | 0.00 | 80 | 1020.2 |
| 20260503002522 | 48 | 167 | 2.6 | 2.6 | 0.00 | 0.08 | 0.00 | 79 | 1020.2 |
| 20260503001515 | 48 | 141 | 1.7 | 2.6 | 0.00 | 0.08 | 0.00 | 77 | 1020.3 |
| 20260503000518 | 48 | 84 | 2.6 | 2.6 | 0.00 | 0.08 | 0.00 | 79 | 1020.4 |
| 20260502235520 | 48 | 150 | 1.7 | 1.7 | 0.00 | 0.08 | 0.00 | 79 | 1020.5 |
| 20260502234543 | 49 | 157 | 2.6 | 2.6 | 0.00 | 0.08 | 0.00 | 78 | 1020.5 |
| 20260502233516 | 49 | 134 | 2.6 | 2.6 | 0.00 | 0.08 | 0.00 | 78 | 1020.6 |
| 20260502232539 | 48 | 135 | 0.9 | 0.9 | 0.00 | 0.08 | 0.00 | 80 | 1020.7 |
| 20260502231521 | 48 | 123 | 2.6 | 2.6 | 0.00 | 0.08 | 0.00 | 79 | 1020.8 |
| 20260502230544 | 49 | 135 | 1.7 | 2.6 | 0.00 | 0.08 | 0.00 | 78 | 1020.8 |
| 20260502225557 | 49 | 108 | 2.6 | 2.6 | 0.00 | 0.08 | 0.00 | 77 | 1020.8 |
| 20260502224519 | 50 | 143 | 4.3 | 5.2 | 0.00 | 0.08 | 0.00 | 76 | 1020.9 |
| 20260502223522 | 50 | 145 | 3.5 | 3.5 | 0.00 | 0.08 | 0.00 | 77 | 1020.9 |
| 20260502222514 | 49 | 96 | 1.7 | 2.6 | 0.00 | 0.08 | 0.00 | 79 | 1021.0 |
| 20260502221537 | 51 | 144 | 2.6 | 2.6 | 0.00 | 0.08 | 0.00 | 74 | 1021.0 |
| 20260502220520 | 51 | 92 | 1.7 | 2.6 | 0.00 | 0.08 | 0.00 | 76 | 1021.1 |
| 20260502215523 | 51 | 117 | 2.6 | 2.6 | 0.00 | 0.08 | 0.08 | 75 | 1021.0 |
| 20260502214535 | 51 | 142 | 2.6 | 3.5 | 0.00 | 0.08 | 0.08 | 75 | 1021.0 |
| 20260502213518 | 52 | 139 | 1.7 | 2.6 | 0.00 | 0.08 | 0.08 | 72 | 1021.1 |
| 20260502212520 | 52 | 126 | 2.6 | 3.5 | 0.00 | 0.08 | 0.08 | 73 | 1021.1 |
| 20260502211523 | 52 | 114 | 1.7 | 1.7 | 0.00 | 0.08 | 0.08 | 71 | 1021.1 |
| 20260502210515 | 53 | 133 | 3.5 | 4.3 | 0.00 | 0.08 | 0.08 | 69 | 1021.0 |
| 20260502205538 | 54 | 123 | 1.7 | 2.6 | 0.00 | 0.08 | 0.08 | 68 | 1021.1 |
| 20260502204520 | 55 | 101 | 3.5 | 4.3 | 0.00 | 0.08 | 0.08 | 66 | 1021.2 |
| 20260502203522 | 55 | 104 | 3.5 | 3.5 | 0.00 | 0.08 | 0.08 | 64 | 1021.2 |
| 20260502202516 | 56 | 159 | 1.7 | 2.6 | 0.00 | 0.08 | 0.08 | 63 | 1021.2 |
| 20260502201558 | 57 | 165 | 3.5 | 3.5 | 0.00 | 0.08 | 0.08 | 61 | 1021.2 |
| 20260502200520 | 58 | 110 | 1.7 | 2.6 | 0.00 | 0.08 | 0.08 | 58 | 1021.2 |
| 20260502195522 | 58 | 81 | 0.0 | 0.9 | 0.00 | 0.08 | 0.08 | 57 | 1021.3 |
| 20260502194515 | 59 | 249 | 0.9 | 0.9 | 0.00 | 0.08 | 0.08 | 57 | 1021.2 |
| 20260502193518 | 59 | 88 | 0.9 | 0.9 | 0.00 | 0.08 | 0.08 | 56 | 1021.0 |
| 20260502192600 | 58 | 12 | 0.9 | 0.9 | 0.00 | 0.08 | 0.08 | 59 | 1021.0 |
| 20260502191542 | 58 | 123 | 1.7 | 1.7 | 0.00 | 0.08 | 0.08 | 59 | 1020.9 |
| 20260502190515 | 62 | 232 | 2.6 | 2.6 | 0.00 | 0.08 | 0.08 | 50 | 1020.9 |
| 20260502185537 | 62 | 293 | 3.5 | 3.5 | 0.01 | 0.08 | 0.08 | 49 | 1020.9 |
| 20260502184520 | 65 | 243 | 2.6 | 3.5 | 0.01 | 0.08 | 0.08 | 41 | 1020.8 |
| 20260502183543 | 64 | 272 | 0.9 | 2.6 | 0.01 | 0.08 | 0.08 | 42 | 1020.6 |
| 20260502182515 | 65 | 279 | 1.7 | 1.7 | 0.01 | 0.08 | 0.08 | 41 | 1020.6 |
| 20260502181537 | 65 | 62 | 0.9 | 1.7 | 0.01 | 0.08 | 0.07 | 39 | 1020.5 |
| 20260502180540 | 66 | 54 | 0.9 | 0.9 | 0.00 | 0.08 | 0.07 | 40 | 1020.5 |
| 20260502170515 | 69 | 188 | 4.3 | 6.1 | 0.02 | 0.08 | 0.07 | 38 | 1020.4 |
| 20260502163543 | 70 | 222 | 6.1 | 7.8 | 0.00 | 0.06 | 0.05 | 39 | 1020.5 |
| 20260502162515 | 70 | 217 | 6.1 | 7.8 | 0.00 | 0.06 | 0.05 | 38 | 1020.5 |
| 20260502161517 | 71 | 221 | 5.2 | 7.8 | 0.00 | 0.06 | 0.04 | 35 | 1020.4 |
| 20260502160520 | 71 | 223 | 10.4 | 13.9 | 0.00 | 0.06 | 0.04 | 39 | 1020.5 |
| 20260502151523 | 73 | 229 | 7.0 | 8.7 | 0.00 | 0.06 | 0.04 | 32 | 1020.8 |
| 20260502150515 | 73 | 231 | 6.1 | 8.7 | 0.00 | 0.06 | 0.04 | 34 | 1020.9 |
| 20260502130515 | 74 | 284 | 8.7 | 12.2 | 0.00 | 0.06 | 0.03 | 28 | 1021.9 |
| 20260502123623 | 74 | 262 | 9.6 | 12.2 | 0.00 | 0.06 | 0.03 | 28 | 1022.3 |
| 20260502122515 | 74 | 257 | 11.3 | 15.6 | 0.00 | 0.06 | 0.03 | 29 | 1022.4 |
| 20260502121517 | 73 | 245 | 9.6 | 12.2 | 0.01 | 0.06 | 0.03 | 32 | 1022.5 |
| 20260502120520 | 74 | 254 | 11.3 | 13.0 | 0.01 | 0.06 | 0.03 | 31 | 1022.6 |
| 20260502115523 | 73 | 247 | 10.4 | 12.2 | 0.01 | 0.06 | 0.03 | 29 | 1022.8 |
| 20260502114535 | 73 | 258 | 7.0 | 9.6 | 0.01 | 0.06 | 0.03 | 31 | 1023.0 |
| 20260502113518 | 73 | 297 | 3.5 | 5.2 | 0.01 | 0.06 | 0.03 | 27 | 1023.0 |
| 20260502112521 | 73 | 226 | 7.0 | 9.6 | 0.01 | 0.06 | 0.03 | 30 | 1023.1 |
| 20260502111523 | 72 | 0.0 | 0.0 | 0.00 | 0.05 | 0.02 | 29 | 1023.2 | |
| 20260502110516 | 72 | 241 | 7.8 | 10.4 | 0.00 | 0.05 | 0.02 | 28 | 1023.3 |
| 20260502105518 | 72 | 275 | 8.7 | 10.4 | 0.00 | 0.06 | 0.02 | 31 | 1023.4 |
| 20260502104541 | 72 | 315 | 4.3 | 7.0 | 0.00 | 0.06 | 0.02 | 28 | 1023.6 |
| 20260502103523 | 72 | 240 | 10.4 | 12.2 | 0.00 | 0.06 | 0.02 | 29 | 1023.7 |
| 20260502102516 | 71 | 271 | 5.2 | 9.6 | 0.00 | 0.06 | 0.02 | 32 | 1023.8 |
| 20260502101519 | 71 | 253 | 7.0 | 9.6 | 0.00 | 0.06 | 0.02 | 29 | 1024.0 |
| 20260502100541 | 72 | 257 | 7.8 | 10.4 | 0.00 | 0.06 | 0.02 | 32 | 1024.1 |
| 20260502091524 | 70 | 328 | 3.5 | 5.2 | 0.01 | 0.06 | 0.02 | 32 | 1024.6 |
| 20260502090517 | 69 | 244 | 5.2 | 7.8 | 0.01 | 0.06 | 0.02 | 35 | 1024.7 |
| 20260502071515 | 60 | 123 | 3.5 | 5.2 | 0.00 | 0.05 | 0.00 | 51 | 1025.5 |
| 20260502070518 | 59 | 59 | 1.7 | 2.6 | 0.00 | 0.05 | 0.00 | 51 | 1025.5 |
| 20260502065541 | 58 | 124 | 3.5 | 4.3 | 0.00 | 0.05 | 0.00 | 55 | 1025.6 |
| 20260502064524 | 57 | 118 | 2.6 | 3.5 | 0.00 | 0.05 | 0.00 | 56 | 1025.8 |
| 20260502063518 | 56 | 91 | 2.6 | 3.5 | 0.00 | 0.05 | 0.00 | 57 | 1025.8 |
| 20260502062542 | 54 | 120 | 3.5 | 3.5 | 0.00 | 0.05 | 0.00 | 60 | 1025.9 |
| 20260502061517 | 53 | 141 | 3.5 | 5.2 | 0.00 | 0.05 | 0.00 | 64 | 1025.9 |
| 20260502060521 | 51 | 157 | 5.2 | 6.1 | 0.00 | 0.05 | 0.00 | 68 | 1025.9 |
| 20260502055515 | 51 | 126 | 3.5 | 5.2 | 0.00 | 0.05 | 0.00 | 67 | 1025.9 |
| 20260502054519 | 50 | 124 | 3.5 | 4.3 | 0.00 | 0.05 | 0.00 | 71 | 1026.0 |
| 20260502053543 | 49 | 125 | 6.1 | 7.0 | 0.00 | 0.05 | 0.00 | 71 | 1025.9 |
| 20260502052538 | 48 | 117 | 4.3 | 5.2 | 0.00 | 0.05 | 0.00 | 78 | 1026.0 |
| 20260502051522 | 46 | 108 | 1.7 | 2.6 | 0.00 | 0.05 | 0.00 | 80 | 1026.0 |
| 20260502050516 | 45 | 124 | 2.6 | 3.5 | 0.00 | 0.05 | 0.00 | 83 | 1026.0 |
| 20260502045520 | 44 | 104 | 1.7 | 2.6 | 0.00 | 0.05 | 0.00 | 85 | 1026.0 |
| 20260502044515 | 42 | 101 | 0.9 | 0.9 | 0.00 | 0.05 | 0.00 | 89 | 1026.0 |
| 20260502043520 | 43 | 145 | 3.5 | 4.3 | 0.00 | 0.05 | 0.00 | 83 | 1025.9 |
| 20260502042523 | 42 | 92 | 2.6 | 2.6 | 0.00 | 0.05 | 0.00 | 87 | 1025.9 |
| 20260502041538 | 41 | 131 | 1.7 | 1.7 | 0.00 | 0.05 | 0.00 | 88 | 1026.0 |
| 20260502040522 | 41 | 125 | 1.7 | 1.7 | 0.00 | 0.05 | 0.00 | 88 | 1026.0 |
| 20260502035516 | 42 | 137 | 1.7 | 2.6 | 0.00 | 0.05 | 0.00 | 85 | 1025.9 |
| 20260502034540 | 41 | 163 | 4.3 | 4.3 | 0.00 | 0.06 | 0.00 | 90 | 1026.0 |
| 20260502033535 | 42 | 173 | 3.5 | 3.5 | 0.00 | 0.06 | 0.00 | 82 | 1025.9 |
| 20260502032519 | 42 | 173 | 1.7 | 1.7 | 0.00 | 0.06 | 0.00 | 86 | 1025.9 |
| 20260502031543 | 42 | 168 | 0.9 | 0.9 | 0.00 | 0.06 | 0.00 | 87 | 1025.8 |
| 20260502030517 | 42 | 104 | 2.6 | 2.6 | 0.00 | 0.06 | 0.00 | 85 | 1025.8 |
| 20260502025522 | 43 | 109 | 1.7 | 2.6 | 0.00 | 0.06 | 0.00 | 84 | 1025.9 |
| 20260502024516 | 43 | 98 | 2.6 | 2.6 | 0.00 | 0.06 | 0.00 | 86 | 1025.9 |
| 20260502023520 | 42 | 139 | 2.6 | 2.6 | 0.00 | 0.06 | 0.00 | 86 | 1026.0 |
| 20260502022514 | 43 | 132 | 3.5 | 4.3 | 0.00 | 0.06 | 0.00 | 85 | 1026.0 |